Fort Polk, LA

4:17 AM CDT on October 14, 2019 (GMT -0500)
Fort Polk

Weather History for KAQV - August, 2019

Change the Weather History Date:

Wednesday, August 28, 2019

  Actual Average (WUND) Record (WUND)
Temperature  
Mean Temperature 84 °F -  
Max Temperature 93 °F - - (-1)
Min Temperature 75 °F - - (-1)
Cooling Degree Days 19    
Growing Degree Days 34 (Base 50)    
Moisture  
Dew Point 72 °F    
Average Humidity 74    
Maximum Humidity 94    
Minimum Humidity 49    
Precipitation  
Precipitation 0.00 in - - ()
Sea Level Pressure  
Sea Level Pressure 30.00 in    
Wind  
Wind Speed 2 mph (North)    
Max Wind Speed 7 mph    
Max Gust Speed -    
Visibility 9 miles    
Events Thunderstorm    
Averages and records for this station are not official NWS values.
T = Trace of Precipitation, MM = Missing Value Source: NWS Daily Summary

Daily Weather History Graph

Daily Weather History Graph

Search for Another Location

Airport or City:

Astronomy

Aug. 28, 2019 Rise Set
Actual Time 6:46 AM CDT 7:41 PM CDT
Civil Twilight 6:21 AM CDT 8:06 PM CDT
Nautical Twilight 5:52 AM CDT 8:36 PM CDT
Astronomical Twilight 5:21 AM CDT 9:06 PM CDT
Moon 4:31 AM CDT (8/28) 6:44 PM CDT (8/28)
Length of Visible Light 13h 45m
Length of Day
12h 55m
Waning Crescent, 4% of the Moon is Illuminated
Aug 28
Waning Crescent
Aug 30
New
Sep 5
First Quarter
Sep 13
Full
Sep 21
Last Quarter

Hourly Weather History & Observations

Time (CDT) Temp. Heat Index Dew Point Humidity Pressure Visibility Wind Dir Wind Speed Gust Speed Precip Events Conditions
12:56 AM 78.1 °F - 75.0 °F 90% 29.99 in 10.0 mi Calm Calm - N/A   Overcast
1:56 AM 77.0 °F - 73.9 °F 90% 29.98 in 7.0 mi Calm Calm - N/A Thunderstorm Thunderstorm
2:16 AM 77.0 °F - 75.0 °F 94% 29.99 in 7.0 mi Calm Calm - N/A   Clear
2:56 AM 75.9 °F - 73.9 °F 94% 29.98 in 5.0 mi Calm Calm - N/A   Clear
3:45 AM 75.9 °F - 73.9 °F 94% 29.99 in 5.0 mi Calm Calm - N/A   Clear
5:56 AM 75.9 °F - 72.0 °F 87% 30.03 in 10.0 mi Variable 3.5 mph - N/A   Partly Cloudy
6:26 AM 75.0 °F - 70.0 °F 84% 30.05 in 10.0 mi Variable 3.5 mph - N/A Thunderstorm Thunderstorm
7:25 AM 75.0 °F - 70.0 °F 84% 30.03 in 10.0 mi Calm Calm - N/A   Clear
7:56 AM 75.9 °F - 70.0 °F 82% 30.01 in 10.0 mi Variable 3.5 mph - N/A   Clear
8:56 AM 75.9 °F - 70.0 °F 82% 30.04 in 10.0 mi Variable 3.5 mph - N/A   Clear
9:56 AM 82.0 °F 85.9 °F 70.0 °F 67% 30.05 in 10.0 mi Calm Calm - N/A   Clear
11:56 AM 88.0 °F 93.8 °F 71.1 °F 57% 30.04 in 10.0 mi Variable 3.5 mph - N/A   Clear
12:56 PM 90.0 °F 94.5 °F 69.1 °F 50% 30.02 in 10.0 mi Variable 4.6 mph - N/A   Clear
1:56 PM 90.0 °F 96.4 °F 71.1 °F 54% 30.01 in 10.0 mi North 5.8 mph - N/A   Clear
2:56 PM 93.0 °F 100.1 °F 71.1 °F 49% 29.99 in 10.0 mi Variable 5.8 mph - N/A   Partly Cloudy
3:56 PM 91.9 °F 98.4 °F 71.1 °F 50% 29.98 in 10.0 mi North 6.9 mph - N/A   Partly Cloudy
4:56 PM 90.0 °F 96.4 °F 71.1 °F 54% 29.96 in 10.0 mi Variable 5.8 mph - N/A   Partly Cloudy
5:56 PM 90.0 °F 95.4 °F 70.0 °F 52% 29.96 in 10.0 mi North 6.9 mph - N/A   Clear
6:56 PM 87.1 °F 92.0 °F 70.0 °F 57% 29.96 in 10.0 mi Calm Calm - N/A   Clear
7:56 PM 81.0 °F 85.2 °F 72.0 °F 74% 29.98 in 10.0 mi Calm Calm - N/A   Clear
8:56 PM 79.0 °F - 73.9 °F 84% 29.99 in 10.0 mi Calm Calm - N/A   Scattered Clouds
9:56 PM 80.1 °F 84.2 °F 73.0 °F 79% 30.01 in 10.0 mi Variable 3.5 mph - N/A   Clear
10:56 PM 78.1 °F - 73.0 °F 84% 30.01 in 10.0 mi Variable 3.5 mph - N/A   Partly Cloudy
11:56 PM 75.9 °F - 72.0 °F 87% 30.00 in 10.0 mi Calm Calm - N/A   Clear